Location: Chuathbaluk
(61.5726°N, 159.2454°W)
Time: 08:06:39
(UTC+00:00)

NUDT-PHONESAT - Pass Details

Date: 19 January 2021
Orbit: 479 x 498 km, 97.4° (Epoch: 08 March)

Event Time Altitude Azimuth Distance (km) Brightness Sun altitude
Rises 17:10:33 0° 19° (NNE) 2,612 ? -15.0°
Reaches altitude 10° 17:12:44 10° 26° (NNE) 1,724 ? -14.8°
Maximum altitude 17:16:17 42° 99° (E) 728 ? -14.4°
Drops below altitude 10° 17:19:48 10° 172° (S) 1,711 ? -14.0°
Sets 17:21:57 0° 179° (S) 2,589 ? -13.7°
